Location: Unspecified
(0.0000°N, 0.0000°E)
Time: 18:52:41
(UTC+00:00)

Vanguard 3 - Pass Details

Date: 22 November 2019
Orbit: 508 x 3263 km, 33.3° (Epoch: 06 December)

Event Time Altitude Azimuth Distance (km) Brightness Sun altitude
Rises 08:24:00 0° 224° (SW) 4,182 10.6 36.7°
Reaches altitude 10° 08:26:24 10° 220° (SW) 3,494 10.4 37.2°
Maximum altitude 08:35:47 62° 140° (SE) 2,268 10.8 39.3°
Drops below altitude 10° 08:52:05 10° 64° (ENE) 5,790 12.0 42.9°
Sets 08:57:18 0° 61° (ENE) 7,042 12.3 44.1°
